Theta_e
330 328 326 326 325 326 326 328 330 333 333 335 333 335 334 334 334 333 335 339 338 340 339 339 339 338 340 342 343 342 343 344 344 344 342 340 340 340 339 339 338 338 338
329 330 328 327 326 327 327 328 327 327 328 329 329 330 329 328 329 330 329 328 330 331 333 334 335 335 334 336 337 339 340 341 342 344 342 340 339 338 338 337 337 337 338
323 323 324 322 320 320 320 321 320 321 321 324 322 322 321 323 323 324 323 324 324 324 325 326 327 328 330 333 333 335 336 337 339 340 341 339 338 338 337 335 336 337 337
318 318 318 317 316 317 316 316 315 314 315 316 315 316 316 318 319 318 323 326 324 324 322 323 322 322 323 325 327 329 330 331 332 335 337 338 338 338 336 335 335 335 336
316 316 315 314 314 314 313 313 313 312 312 311 310 310 313 315 316 323 322 322 320 318 317 319 317 317 317 318 321 323 324 325 325 327 328 329 334 337 336 335 335 335 335
313 313 311 310 311 311 310 310 310 310 310 308 309 309 313 316 319 321 319 319 317 315 314 315 315 313 313 313 314 317 319 321 322 322 323 325 326 329 334 335 335 335 335
311 309 309 308 309 308 308 308 307 307 307 308 306 308 311 317 317 318 315 314 313 313 312 311 312 313 311 309 308 310 313 315 316 318 320 320 322 324 326 331 334 334 334
308 308 307 307 308 307 307 306 306 306 306 307 302 304 305 310 311 315 314 313 310 310 311 311 310 308 306 302 303 305 306 308 311 313 315 316 318 320 323 325 329 334 334
308 308 308 308 307 308 305 305 306 304 303 305 305 302 299 299 300 310 308 307 304 304 307 303 301 300 302 300 300 300 301 302 305 309 311 313 316 318 320 323 325 327 330
307 307 307 307 307 306 305 304 305 304 304 301 305 306 304 301 297 297 303 301 301 303 302 300 297 296 295 297 298 299 300 299 301 305 308 310 312 315 316 319 322 325 326
305 306 306 306 305 304 303 302 302 302 302 301 300 300 301 301 298 294 292 295 298 300 299 296 294 292 292 292 295 296 298 298 299 301 305 307 308 310 313 316 319 320 322
303 304 305 304 304 302 302 301 301 300 300 299 298 297 295 293 292 291 290 291 292 296 296 295 292 291 291 290 294 296 296 296 297 299 301 303 305 308 310 312 314 316 318
301 302 302 302 301 300 300 300 298 298 297 296 295 294 294 292 293 292 291 289 289 292 294 294 292 291 292 291 291 294 295 295 295 297 298 300 302 303 304 306 308 310 312
301 302 301 300 299 299 298 297 296 296 296 295 293 294 293 291 291 291 288 286 285 289 292 292 293 291 289 289 291 292 292 293 293 294 294 295 297 298 299 301 302 303 305
301 300 299 298 298 298 296 295 294 294 294 294 293 292 291 291 291 290 288 287 285 281 284 287 286 289 287 288 289 290 290 291 291 292 291 291 293 295 296 296 297 298 299
300 299 298 296 296 296 295 294 292 293 292 292 291 290 290 290 289 288 286 286 286 284 280 285 286 285 286 286 289 290 291 289 289 290 289 289 289 290 292 292 292 293 294
298 296 295 295 294 293 293 292 291 291 291 289 289 288 289 289 288 287 288 286 286 285 280 284 286 284 283 281 284 287 289 285 286 288 288 288 287 286 288 290 288 289 290
296 294 293 292 292 292 291 291 290 290 289 288 288 287 287 289 287 285 285 284 284 284 281 280 283 281 281 280 281 285 288 286 285 286 287 288 286 285 285 286 286 286 287
293 292 291 290 290 290 290 290 289 289 288 288 286 285 284 284 283 283 283 282 282 285 283 281 279 280 279 279 280 283 285 283 285 287 286 287 286 285 285 285 285 285 285
291 290 290 289 289 289 289 289 288 287 286 285 283 281 280 279 278 279 281 280 281 280 281 280 279 278 277 278 279 278 282 281 278 281 284 286 286 285 284 284 284 284 284
290 289 288 288 288 288 286 288 287 286 284 283 280 279 279 280 280 279 277 276 278 278 278 277 276 275 273 273 274 277 280 278 276 276 278 282 283 283 282 283 283 284 284
287 287 286 286 286 283 284 286 287 285 284 281 279 278 278 279 279 279 279 279 277 275 275 275 273 272 272 272 274 276 277 276 274 276 276 278 280 283 282 282 284 283 283
286 285 285 283 281 281 285 287 287 284 283 282 280 278 278 279 278 277 278 277 277 277 277 274 271 271 271 272 274 275 277 277 273 273 274 275 278 279 283 283 284 284 283
284 284 283 281 281 282 284 286 285 282 281 280 280 278 277 276 277 277 276 274 272 272 273 274 272 272 273 274 274 276 277 277 274 273 273 273 275 275 281 281 283 283 283
284 284 283 281 280 281 284 284 283 281 278 277 278 277 275 273 277 279 275 273 271 270 276 277 277 277 277 277 276 274 273 274 273 270 271 270 272 272 276 277 280 282 282
283 283 281 280 280 280 282 284 282 279 276 275 274 274 276 271 277 278 271 269 267 265 267 268 270 272 273 273 276 272 272 270 269 266 269 269 271 272 271 274 276 278 278
Wind_Speed
5 4 3 2 1 1 1 3 4 3 2 4 1 4 4 5 6 3 3 8 7 6 9 9 9 8 10 10 9 7 9 12 15 16 17 17 17 17 17 16 14 14 15
1 5 5 5 4 2 2 2 3 4 4 4 3 3 3 4 5 5 4 4 17 19 18 16 15 13 13 13 13 10 8 9 11 15 16 17 18 18 18 16 17 17 17
2 4 4 4 4 3 3 3 1 2 3 3 2 3 3 4 2 5 5 2 8 16 17 17 17 18 18 18 16 14 12 10 9 9 12 14 17 19 19 18 19 19 19
3 2 3 4 4 2 3 4 3 4 4 4 3 3 4 4 3 2 3 7 6 5 11 17 18 20 22 22 22 22 21 20 19 17 11 11 13 17 18 18 19 19 20
3 4 4 4 4 2 4 3 3 3 3 4 4 3 3 3 1 4 6 9 8 8 6 16 18 18 20 21 23 22 22 21 21 21 20 19 15 13 15 18 19 21 22
1 4 4 1 2 3 4 3 2 3 1 3 4 5 4 2 3 5 7 8 6 7 6 5 6 9 18 21 22 23 23 22 21 21 20 20 19 19 14 16 18 20 21
2 2 4 2 4 4 4 3 2 1 4 4 2 2 1 5 3 6 5 5 6 4 6 4 4 6 6 18 19 23 24 23 22 22 21 21 21 19 18 14 17 18 20
2 3 3 3 3 4 4 4 3 3 3 4 2 2 1 2 2 4 5 5 5 4 4 4 7 9 7 7 14 22 23 24 24 23 21 21 21 21 19 17 15 15 18
5 5 4 4 3 4 4 4 4 6 2 2 4 2 3 3 1 2 6 5 7 5 9 12 12 12 11 8 10 15 22 23 24 23 22 21 20 19 21 18 15 16 9
6 5 5 4 5 4 4 3 4 3 4 4 2 3 5 4 3 1 3 6 5 7 9 8 10 11 11 9 15 19 18 19 21 22 21 20 20 19 18 20 18 16 12
6 6 5 6 6 4 5 6 5 6 5 4 5 4 5 5 6 3 3 5 4 5 8 8 7 7 8 8 8 12 17 18 19 19 20 19 18 19 18 17 18 15 14
5 6 6 6 6 5 5 4 5 7 5 6 5 6 5 3 4 3 2 3 3 3 7 6 5 4 4 4 11 17 20 20 19 19 20 19 18 18 19 18 17 17 18
4 5 6 6 5 6 6 5 5 6 6 5 6 4 4 4 3 2 3 3 3 3 3 4 6 6 8 5 9 14 18 19 21 20 20 21 20 19 19 17 17 19 23
6 6 6 6 6 6 6 6 4 4 5 5 6 5 4 4 4 4 3 1 3 3 4 3 5 6 4 3 12 16 7 17 21 21 20 22 22 22 19 19 19 21 21
7 7 7 7 6 6 6 6 4 5 5 5 5 4 4 3 3 4 4 3 1 2 2 3 2 3 3 4 9 6 5 17 20 21 20 22 23 24 22 21 21 19 21
8 8 7 8 7 6 7 6 5 5 6 4 4 6 5 2 4 4 3 2 2 2 2 3 3 5 5 6 8 6 6 12 17 18 19 21 23 24 24 21 24 25 23
9 8 8 8 8 6 7 6 8 6 6 6 5 4 3 2 3 2 2 1 3 3 2 3 2 5 6 6 5 4 5 6 6 15 16 19 19 22 23 23 23 21 22
8 8 7 7 7 7 7 6 7 6 5 6 6 5 5 2 3 3 2 1 2 3 2 2 2 4 6 5 5 4 4 5 4 6 11 13 18 20 22 22 23 24 23
8 8 8 8 8 7 7 9 7 6 6 7 7 6 7 7 6 3 4 3 3 2 4 2 4 5 4 5 4 2 4 2 5 6 4 6 11 19 22 23 23 25 24
8 8 7 8 8 7 8 9 8 7 7 10 10 9 8 9 7 8 7 7 3 4 4 4 5 5 5 6 5 3 2 3 5 7 8 5 2 13 21 21 23 23 24
9 8 8 7 7 7 5 5 9 8 8 11 10 9 7 10 17 15 6 7 9 5 5 6 5 5 6 5 7 6 3 3 6 7 6 7 7 5 9 15 17 22 23
9 9 9 8 5 7 7 8 7 7 9 11 9 9 8 12 13 16 17 20 15 9 10 8 6 5 7 6 7 6 5 4 4 9 7 7 8 5 5 7 21 21 20
8 7 9 9 10 5 8 12 11 6 7 6 7 7 6 7 9 6 15 17 18 20 20 10 8 6 6 7 8 8 9 6 5 6 6 5 8 5 5 8 21 22 22
9 7 10 10 8 5 12 17 16 10 9 8 8 9 8 7 5 9 9 9 9 11 11 8 6 2 3 7 8 6 8 8 7 8 10 4 6 4 3 5 20 23 22
10 8 10 11 9 6 13 16 13 9 9 9 8 7 7 3 7 12 8 8 7 5 10 12 12 11 12 16 15 7 9 7 4 3 7 2 5 4 2 4 5 22 22
9 8 11 10 11 6 8 12 12 7 9 7 7 6 11 5 8 11 5 6 7 2 4 3 4 6 6 8 15 8 6 6 3 3 4 4 6 5 4 2 3 6 7
Wind_Direction
148 154 161 148 210 5 319 319 331 296 269 281 351 329 315 346 345 355 43 108 126 115 58 38 24 5 347 351 357 339 285 249 233 226 220 219 220 218 217 214 212 212 211
87 166 176 183 193 165 342 315 36 336 340 343 327 295 11 330 320 335 10 8 71 70 61 45 28 19 4 350 350 350 350 334 270 242 230 224 221 220 223 211 214 215 212
19 337 53 50 46 57 270 299 339 291 264 277 300 4 347 291 339 39 24 319 92 76 78 63 46 39 31 21 21 10 358 344 328 309 275 248 230 225 220 215 215 219 216
8 325 77 57 357 37 25 19 21 7 347 359 350 346 351 356 18 351 31 64 60 68 75 73 65 55 44 35 32 29 22 20 17 12 336 295 252 235 228 222 216 222 222
17 56 58 59 296 72 57 11 7 53 336 8 324 319 258 252 255 69 65 78 61 49 51 84 71 60 51 39 30 26 24 19 17 14 10 358 336 260 238 235 225 214 215
70 117 79 88 335 52 66 13 8 12 30 27 323 306 305 27 47 93 60 71 77 78 56 40 106 74 62 45 28 21 17 13 7 7 7 3 355 344 291 238 232 228 223
73 58 120 145 73 69 59 24 332 236 60 10 279 310 268 114 82 95 95 77 66 88 99 64 46 72 64 49 29 20 15 11 5 358 355 357 354 346 338 304 248 237 230
99 86 91 71 50 99 66 32 23 329 91 46 357 265 135 74 76 105 97 94 58 34 46 113 67 66 42 45 32 17 14 8 2 358 355 347 342 342 339 333 325 244 229
104 83 54 88 50 70 69 41 11 16 53 105 42 21 354 91 269 129 104 77 51 30 49 60 56 49 42 63 46 22 8 4 358 354 352 344 339 336 339 335 327 310 283
108 94 92 65 61 55 69 75 16 33 351 35 81 68 74 56 14 346 61 66 43 74 64 53 44 39 32 27 38 21 15 7 359 350 347 349 343 339 338 335 344 333 288
131 122 116 105 92 75 53 53 28 19 20 42 32 359 30 67 42 13 319 16 14 34 71 64 53 41 29 24 26 5 19 8 359 354 349 352 352 342 338 340 357 332 345
136 124 110 101 103 89 70 57 57 43 47 31 60 39 46 30 54 9 4 340 3 60 81 69 57 49 52 32 28 15 20 14 6 4 359 358 357 358 3 5 5 357 360
136 136 124 120 96 91 81 82 75 57 44 55 34 72 61 55 43 24 341 6 353 286 107 81 64 38 17 25 24 21 19 19 15 15 13 12 17 15 14 13 20 22 19
138 127 106 105 110 107 99 99 73 81 72 72 57 63 81 55 49 54 52 4 302 275 99 92 89 56 21 359 27 20 11 29 21 20 24 18 22 21 23 22 29 35 38
125 132 121 117 111 107 97 84 95 97 86 84 75 57 89 104 70 75 48 45 312 344 350 99 68 69 21 38 27 26 9 41 27 23 35 27 23 21 24 28 26 39 51
131 132 128 124 123 114 117 117 89 71 82 61 62 47 58 30 126 114 142 129 88 36 323 357 353 72 35 18 34 22 343 57 34 22 36 38 31 22 19 36 25 26 26
138 143 130 128 120 113 87 90 93 77 87 85 78 67 110 36 44 81 160 153 141 159 239 343 334 60 53 34 358 30 358 77 54 18 38 39 39 35 20 32 31 28 27
133 128 129 121 116 115 123 124 94 112 103 90 80 47 3 86 98 42 74 156 135 197 144 322 47 44 48 27 313 85 19 53 79 30 25 43 39 42 34 29 32 27 30
116 125 119 127 122 115 109 97 97 88 79 78 69 46 22 18 23 25 52 31 3 42 59 351 51 49 25 357 337 71 111 104 58 43 19 57 53 47 39 30 28 28 28
126 127 130 115 110 122 123 117 117 105 102 83 69 58 45 34 15 341 43 355 2 53 43 48 52 48 1 349 349 334 121 64 31 16 0 94 9 52 49 35 28 24 30
141 121 114 102 106 93 69 97 123 118 117 106 103 94 85 82 67 52 49 19 5 48 45 55 37 46 4 353 348 326 57 140 70 30 353 23 346 101 57 35 33 31 26
104 108 122 128 95 88 62 56 124 134 126 126 131 129 134 102 85 80 72 67 56 46 50 64 36 33 14 355 330 327 341 42 31 32 347 16 354 38 75 42 30 35 27
123 135 121 92 78 89 77 72 101 86 80 82 120 137 130 114 131 120 79 69 60 63 61 62 74 30 4 349 330 339 347 80 70 7 351 30 358 355 23 29 31 28 27
139 134 114 116 117 121 92 86 85 79 77 69 64 63 67 56 354 107 98 92 79 69 65 72 71 21 13 2 347 345 327 105 111 43 12 17 355 328 340 14 32 25 24
128 121 127 124 129 123 107 101 99 90 86 76 65 78 80 56 73 96 100 98 90 97 85 87 78 59 38 41 33 15 15 30 33 58 13 288 352 316 340 22 29 29 17
113 103 110 115 130 114 108 134 126 119 109 102 94 80 99 104 96 115 116 111 94 70 95 70 72 39 38 33 48 35 26 38 27 23 352 357 358 356 340 11 13 34 7